Regional Weather Roundup
Issued by NWS

Home | Current Version | Previous Version | Graphics & Text | Print | Product List | Glossary On
Versions: 1 2 3 4 5 6 7 8 9 10 11 12 13 14 15 16 17 18 19 20 21 22 23 24 25 26 27 28 29 30 31 32 33 34 35 36 37 38 39 40 41 42 43 44 45 46 47 48 49 50
000
ASUS43 KTOP 182208
RWRKS

WEATHER ROUNDUP FOR KANSAS
NATIONAL WEATHER SERVICE GOODLAND KS
500 PM CDT THU SEP 18 2014

NOTE:  "FAIR" INDICATES FEW OR NO CLOUDS BELOW 12,000 FEET WITH NO
SIGNIFICANT WEATHER AND/OR OBSTRUCTIONS TO VISIBILITY.

KSZ001>006-013>018-027>032-041>047-182300-
NORTHWEST KANSAS

CITY           SKY/WX    TMP DP  RH WIND       PRES   REMARKS
GOODLAND       SUNNY     85  60  42 SE10      29.92F
HAYS           SUNNY     88  64  45 S21G29    29.87S
HILL CITY      SUNNY     79  66  64 N6        29.89F
RUSSELL        SUNNY     85  62  46 S17G24    29.87F
$$

KSZ061>065-074>080-084>089-182300-
SOUTHWEST KANSAS

CITY           SKY/WX    TMP DP  RH WIND       PRES   REMARKS
DODGE CITY     SUNNY     87  60  40 S22       29.91F
ELKHART          N/A     85  58  40 SE18        N/A
GARDEN CITY    SUNNY     89  54  30 S18       29.90F
GREAT BEND     SUNNY     88  57  35 S18G26    29.88S
LIBERAL        MOSUNNY   90  57  33 S14G24    29.93F
PRATT          SUNNY     86  54  32 S14G20    29.92F
$$

KSZ066>073-081>083-090>101-182300-
SOUTHEAST KANSAS

CITY           SKY/WX    TMP DP  RH WIND       PRES   REMARKS
CHANUTE        MOSUNNY   77  64  64 E10       29.94F
COFFEYVILLE    PTSUNNY   75  65  70 NE13G18   29.92F
HUTCHINSON     SUNNY     89  55  31 S17G26    29.90F
MEDICINE LODGE   N/A     88  59  37 S10G20    29.89F
NEWTON         SUNNY     86  55  35 S15       29.94S
PARSONS        PTSUNNY   76  66  71 VRB6      29.95F
WICHITA INTL   MOSUNNY   89  54  30 S13       29.90F
WICHITA JABRA  SUNNY     88  56  33 S9        29.90F
WICHITA MCCONL SUNNY     87  55  32 S9        29.90F
WINFIELD       SUNNY     87  59  38 VRB5      29.90F
$$

KSZ007>012-019>026-033>040-048>060-102>105-182300-
NORTHEAST KANSAS

CITY           SKY/WX    TMP DP  RH WIND       PRES   REMARKS
CONCORDIA      SUNNY     80  63  55 S15       29.92F
EMPORIA        SUNNY     77  66  68 E13       29.94S
LAWRENCE       CLOUDY    68  61  78 E9        29.99S HAZE
MANHATTAN      SUNNY     79  66  64 E9        29.93F
MARYSVILLE     CLOUDY    73  64  73 E9        29.94F
OLATHE IND     CLOUDY    67  62  84 E13       30.00R
OLATHE EXE     CLOUDY    66  62  87 E9        30.00R
SALINA         SUNNY     85  61  44 S13G22    29.90F
TOPEKA BILLARD CLOUDY    70  64  81 E10       29.98S
TOPEKA FORBES  CLOUDY    70  63  78 E8        29.97S
$$



USA.gov is the U.S. government's official web portal to all federal, state and local government web resources and services.